When you browse on this site, cookies collect data to enhance your experience and personalize the content and advertising you see.
Visit our Privacy Policy to learn more. By continuing to use the site, you agree to this use of cookies and data.
  • en Belgique
  • Liste des pays
  • À 7 jours
  • Température de l'eau
  • Carte satellitaire
  • Carte météo
  • Widgets météo
  • user-avatar
    Se connecter

    Météo par heure à Proszkow

    Ce jour, 18 Février, Lundi

    Heure Température Précipitation Vent Pression Humidité
    00:00 +5°C° 0 mm 2 m/s 755 mmHg 64%
    01:00 +5°C° 0 mm 2 m/s 755 mmHg 63%
    02:00 +5°C° 0 mm 2 m/s 755 mmHg 62%
    03:00 +5°C° 0 mm 1 m/s 755 mmHg 61%
    04:00 +5°C° 0 mm 1 m/s 754 mmHg 60%
    05:00 +5°C° 0 mm 1 m/s 754 mmHg 61%
    06:00 +5°C° 0 mm 1 m/s 754 mmHg 61%
    07:00 +4°C° 0 mm 1 m/s 754 mmHg 61%
    08:00 +6°C° 0 mm 1 m/s 754 mmHg 58%
    09:00 +8°C° 0 mm 1 m/s 754 mmHg 54%
    10:00 +9°C° 0 mm 1 m/s 754 mmHg 51%
    11:00 +11°C° 0 mm 1 m/s 754 mmHg 47%
    12:00 +12°C° 0 mm 1 m/s 754 mmHg 44%
    13:00 +13°C° 0 mm 1 m/s 753 mmHg 41%
    14:00 +13°C° 0 mm 1 m/s 753 mmHg 44%
    15:00 +13°C° 0 mm 1 m/s 753 mmHg 48%
    16:00 +13°C° 0 mm 1 m/s 752 mmHg 52%
    17:00 +10°C° 0 mm 2 m/s 752 mmHg 56%
    18:00 +8°C° 0 mm 2 m/s 752 mmHg 60%
    19:00 +7°C° 0 mm 2 m/s 752 mmHg 64%
    20:00 +6°C° 0 mm 2 m/s 752 mmHg 64%
    21:00 +6°C° 0 mm 2 m/s 752 mmHg 65%
    22:00 +5°C° 0 mm 2 m/s 751 mmHg 65%
    23:00 +5°C° 0 mm 2 m/s 751 mmHg 66%

    Demain, 19 Février, Mardi

    Heure Température Précipitation Vent Pression Humidité
    00:00 +4°C° 0 mm 2 m/s 751 mmHg 67%
    01:00 +4°C° 0 mm 2 m/s 751 mmHg 68%
    02:00 +4°C° 0 mm 2 m/s 751 mmHg 69%
    03:00 +4°C° 0 mm 2 m/s 751 mmHg 69%
    04:00 +3°C° 0 mm 2 m/s 750 mmHg 70%
    05:00 +3°C° 0 mm 2 m/s 750 mmHg 70%
    06:00 +2°C° 0 mm 3 m/s 750 mmHg 70%
    07:00 +2°C° 0 mm 3 m/s 750 mmHg 70%
    08:00 +4°C° 0 mm 3 m/s 750 mmHg 65%
    09:00 +7°C° 0 mm 3 m/s 750 mmHg 60%
    10:00 +8°C° 0 mm 3 m/s 750 mmHg 55%
    11:00 +10°C° 0 mm 4 m/s 749 mmHg 52%
    12:00 +11°C° 0 mm 4 m/s 749 mmHg 49%
    13:00 +12°C° 0 mm 5 m/s 749 mmHg 46%
    14:00 +12°C° 0 mm 4 m/s 749 mmHg 50%
    15:00 +11°C° 0 mm 4 m/s 749 mmHg 54%
    16:00 +10°C° 0 mm 4 m/s 749 mmHg 58%
    17:00 +8°C° 0 mm 4 m/s 749 mmHg 65%
    18:00 +7°C° 0 mm 4 m/s 749 mmHg 72%
    19:00 +6°C° 0 mm 4 m/s 749 mmHg 78%
    20:00 +6°C° 0.4 mm 4 m/s 750 mmHg 80%
    21:00 +6°C° 0.4 mm 4 m/s 750 mmHg 83%
    22:00 +5°C° 0.4 mm 4 m/s 750 mmHg 85%
    23:00 +5°C° 0 mm 4 m/s 751 mmHg 85%

    Après-demain, 20 Février, Mercredi

    Heure Température Précipitation Vent Pression Humidité
    00:00 +4°C° 0 mm 4 m/s 751 mmHg 85%
    01:00 +3°C° 0 mm 5 m/s 751 mmHg 85%
    02:00 +2°C° 0 mm 5 m/s 751 mmHg 85%
    03:00 +2°C° 0 mm 5 m/s 751 mmHg 86%
    04:00 +2°C° 0 mm 5 m/s 752 mmHg 87%
    05:00 +2°C° 0 mm 5 m/s 752 mmHg 86%
    06:00 +2°C° 0 mm 5 m/s 752 mmHg 86%
    07:00 +2°C° 0 mm 5 m/s 752 mmHg 86%
    08:00 +3°C° 0 mm 5 m/s 753 mmHg 81%
    09:00 +5°C° 0 mm 5 m/s 753 mmHg 75%
    10:00 +5°C° 0 mm 6 m/s 753 mmHg 70%
    11:00 +5°C° 0 mm 6 m/s 753 mmHg 66%
    12:00 +7°C° 0 mm 6 m/s 753 mmHg 62%
    13:00 +8°C° 0 mm 6 m/s 753 mmHg 58%
    14:00 +8°C° 0 mm 6 m/s 753 mmHg 60%
    15:00 +8°C° 0 mm 5 m/s 753 mmHg 61%
    16:00 +7°C° 0 mm 4 m/s 753 mmHg 63%
    17:00 +7°C° 0 mm 4 m/s 754 mmHg 67%
    18:00 +7°C° 0 mm 3 m/s 754 mmHg 71%
    19:00 +5°C° 0 mm 3 m/s 754 mmHg 74%
    20:00 +5°C° 0 mm 3 m/s 754 mmHg 76%
    21:00 +5°C° 0 mm 3 m/s 755 mmHg 78%
    22:00 +4°C° 0 mm 3 m/s 755 mmHg 79%
    23:00 +4°C° 0 mm 3 m/s 755 mmHg 78%

    21 Février, Jeudi

    Heure Température Précipitation Vent Pression Humidité
    00:00 +4°C° 0 mm 3 m/s 755 mmHg 77%
    01:00 +4°C° 0 mm 4 m/s 755 mmHg 75%
    02:00 +4°C° 0 mm 3 m/s 755 mmHg 77%
    03:00 +4°C° 0 mm 3 m/s 755 mmHg 79%
    04:00 +3°C° 0 mm 3 m/s 754 mmHg 81%
    05:00 +4°C° 0.2 mm 3 m/s 755 mmHg 81%
    06:00 +4°C° 0.2 mm 4 m/s 755 mmHg 82%
    07:00 +4°C° 0.2 mm 4 m/s 755 mmHg 82%
    08:00 +5°C° 0 mm 4 m/s 755 mmHg 78%
    09:00 +6°C° 0 mm 5 m/s 755 mmHg 75%
    10:00 +7°C° 0 mm 5 m/s 755 mmHg 71%
    11:00 +7°C° 0.1 mm 5 m/s 755 mmHg 72%
    12:00 +8°C° 0.1 mm 5 m/s 755 mmHg 73%
    13:00 +8°C° 0.1 mm 6 m/s 755 mmHg 73%
    14:00 +7°C° 0.8 mm 5 m/s 755 mmHg 77%
    15:00 +7°C° 0.8 mm 4 m/s 755 mmHg 82%
    16:00 +6°C° 0.8 mm 4 m/s 755 mmHg 86%
    17:00 +7°C° 0.3 mm 3 m/s 755 mmHg 88%
    18:00 +7°C° 0.3 mm 3 m/s 755 mmHg 90%
    19:00 +7°C° 0.3 mm 3 m/s 756 mmHg 92%
    20:00 +7°C° 0.1 mm 2 m/s 756 mmHg 93%
    21:00 +7°C° 0.1 mm 2 m/s 756 mmHg 94%
    22:00 +7°C° 0.1 mm 2 m/s 757 mmHg 95%
    23:00 +6°C° 0 mm 2 m/s 757 mmHg 95%

    22 Février, Vendredi

    Heure Température Précipitation Vent Pression Humidité
    00:00 +6°C° 0 mm 2 m/s 758 mmHg 96%
    01:00 +6°C° 0 mm 2 m/s 758 mmHg 97%
    02:00 +5°C° 0.1 mm 3 m/s 759 mmHg 96%
    03:00 +5°C° 0.1 mm 3 m/s 759 mmHg 96%
    04:00 +5°C° 0.1 mm 3 m/s 760 mmHg 96%
    05:00 +5°C° 0 mm 4 m/s 760 mmHg 95%
    06:00 +4°C° 0 mm 4 m/s 761 mmHg 94%
    07:00 +4°C° 0 mm 4 m/s 761 mmHg 93%
    08:00 +4°C° 0 mm 4 m/s 762 mmHg 91%
    09:00 +4°C° 0 mm 4 m/s 762 mmHg 90%
    10:00 +4°C° 0 mm 3 m/s 763 mmHg 88%
    11:00 +4°C° 0 mm 3 m/s 763 mmHg 87%
    12:00 +5°C° 0 mm 3 m/s 764 mmHg 86%
    13:00 +5°C° 0 mm 3 m/s 764 mmHg 85%
    14:00 +5°C° 0 mm 3 m/s 764 mmHg 84%
    15:00 +5°C° 0 mm 3 m/s 765 mmHg 83%
    16:00 +5°C° 0 mm 3 m/s 765 mmHg 82%
    17:00 +6°C° 0 mm 2 m/s 765 mmHg 85%
    18:00 +5°C° 0 mm 2 m/s 766 mmHg 87%
    19:00 +6°C° 0 mm 1 m/s 766 mmHg 90%
    20:00 +6°C° 0 mm 1 m/s 766 mmHg 91%
    21:00 +4°C° 0 mm 0 m/s 767 mmHg 92%
    22:00 +3°C° 0 mm 0 m/s 767 mmHg 94%
    23:00 +3°C° 0 mm 0 m/s 767 mmHg 93%

    23 Février, Samedi

    Heure Température Précipitation Vent Pression Humidité
    00:00 +3°C° 0 mm 0 m/s 768 mmHg 93%
    01:00 +3°C° 0 mm 0 m/s 768 mmHg 92%
    02:00 +2°C° 0 mm 0 m/s 768 mmHg 92%
    03:00 +2°C° 0 mm 0 m/s 768 mmHg 92%
    04:00 +2°C° 0 mm 0 m/s 767 mmHg 91%
    05:00 +2°C° 0 mm 0 m/s 768 mmHg 92%
    06:00 +2°C° 0 mm 0 m/s 768 mmHg 92%
    07:00 +1°C° 0 mm 0 m/s 768 mmHg 93%
    08:00 +3°C° 0 mm 0 m/s 768 mmHg 88%
    09:00 +4°C° 0 mm 0 m/s 768 mmHg 83%
    10:00 +6°C° 0 mm 0 m/s 768 mmHg 78%
    11:00 +8°C° 0 mm 1 m/s 768 mmHg 72%
    12:00 +9°C° 0 mm 1 m/s 768 mmHg 67%
    13:00 +10°C° 0 mm 1 m/s 767 mmHg 61%
    14:00 +10°C° 0 mm 1 m/s 767 mmHg 61%
    15:00 +11°C° 0 mm 1 m/s 767 mmHg 61%
    16:00 +10°C° 0 mm 2 m/s 766 mmHg 61%
    17:00 +9°C° 0 mm 2 m/s 766 mmHg 66%
    18:00 +8°C° 0 mm 1 m/s 766 mmHg 71%
    19:00 +7°C° 0 mm 1 m/s 766 mmHg 77%
    20:00 +7°C° 0 mm 1 m/s 766 mmHg 78%
    21:00 +6°C° 0 mm 2 m/s 766 mmHg 80%
    22:00 +5°C° 0 mm 2 m/s 766 mmHg 82%
    23:00 +5°C° 0 mm 2 m/s 766 mmHg 83%
    Voir plus